Southeast Shoal, Ontario

5:45 AM EDT on July 21, 2017 (GMT -0400)
Southeast Shoal

Weather History for CWNB - November, 2012

Change the Weather History Date:

Saturday, November 3, 2012

  Actual Average Record
Temperature  
Mean Temperature 40 °F -  
Max Temperature 43 °F - - ()
Min Temperature 38 °F - - ()
Degree Days  
Heating Degree Days 24    
Moisture  
Dew Point 31 °F    
Average Humidity 66    
Maximum Humidity 83    
Minimum Humidity 48    
Precipitation  
Precipitation 0.00 in - - ()
Sea Level Pressure  
Sea Level Pressure 30.14 in    
Wind  
Wind Speed - ()    
Max Wind Speed -    
Max Gust Speed -    
T = Trace of Precipitation, MM = Missing Value Source: Averaged Metar Reports

Daily Weather History Graph

Daily Weather History Graph

Search for Another Location

Airport or City:

Trip Planner

Search our weather history database for the weather conditions in past years. The results will help you decide how hot, cold, wet, or windy it might be!

Date:

Astronomy

Nov. 03, 2012 Rise Set
Actual Time 8:05 AM EDT 6:21 PM EDT
Civil Twilight 7:36 AM EDT 6:50 PM EDT
Nautical Twilight 7:03 AM EDT 7:23 PM EDT
Astronomical Twilight 6:30 AM EDT 7:55 PM EDT
Moon 9:59 PM EDT (11/3) 12:10 PM EDT (11/3)
Length of Visible Light 11h 14m
Length of Day
10h 15m
Waning Gibbous, 80% of the Moon is Illuminated
Nov 3
Waning Gibbous
Nov 6
Last Quarter
Nov 13
New
Nov 20
First Quarter
Nov 28
Full

Hourly Weather History & Observations

Time (EDT) Temp. Dew Point Humidity Pressure Visibility Wind Dir Wind Speed Gust Speed Precip Events Conditions
12:00 AM 40.8 °F 30.4 °F 66% 30.06 in - North - - N/A   Unknown
1:00 AM 40.6 °F 29.5 °F 64% 30.07 in - North - - N/A   Unknown
2:00 AM 40 °F 30 °F 56% 30.08 in - Calm Calm - -  
2:00 AM 40.3 °F 29.7 °F 66% 30.08 in - North - - N/A   Unknown
3:00 AM 39.9 °F 28.6 °F 64% 30.09 in - North - - N/A   Unknown
4:00 AM 39.9 °F 28.6 °F 64% 30.09 in - North - - N/A   Unknown
5:00 AM 39.6 °F 30.9 °F 71% 30.10 in - North - - N/A   Unknown
6:00 AM 39.4 °F 31.8 °F 74% 30.12 in - North - - N/A   Unknown
7:00 AM 38.7 °F 31.6 °F 76% 30.14 in - North - - N/A   Unknown
8:00 AM 38 °F 32 °F 73% 30.14 in - Calm Calm - -  
8:00 AM 38.3 °F 31.6 °F 77% 30.14 in - North - - N/A   Unknown
9:00 AM 38.1 °F 33.3 °F 83% 30.16 in - North - - N/A   Unknown
10:00 AM 38.1 °F 33.4 °F 83% 30.17 in - North - - N/A   Unknown
11:00 AM 39.0 °F 32.9 °F 79% 30.18 in - North - - N/A   Unknown
12:00 PM 40.5 °F 31.5 °F 70% 30.17 in - North - - N/A   Unknown
1:00 PM 41.5 °F 30.9 °F 66% 30.17 in - North - - N/A   Unknown
2:00 PM 43 °F 30 °F 49% 30.16 in - Calm Calm - -  
2:00 PM 43.0 °F 30.2 °F 61% 30.16 in - North - - N/A   Unknown
3:00 PM 42.6 °F 30.6 °F 62% 30.16 in - North - - N/A   Unknown
4:00 PM 43.2 °F 31.1 °F 62% 30.15 in - North - - N/A   Unknown
5:00 PM 42.8 °F 30.0 °F 61% 30.15 in - North - - N/A   Unknown
6:00 PM 43.0 °F 31.5 °F 64% 30.14 in - North - - N/A   Unknown
7:00 PM 41.5 °F 30.7 °F 65% 30.16 in - North - - N/A   Unknown
8:00 PM 42 °F 29 °F 48% 30.16 in - Calm Calm - -  
8:00 PM 41.9 °F 28.9 °F 60% 30.16 in - North - - N/A   Unknown
9:00 PM 41.5 °F 28.8 °F 60% 30.16 in - North - - N/A   Unknown
10:00 PM 41.4 °F 30.6 °F 65% 30.16 in - North - - N/A   Unknown
11:00 PM 41.2 °F 31.6 °F 69% 30.16 in - North - - N/A   Unknown